1st Responders/1st Detectors/Storm Spotters Weather Summary for Harrison County, KY
[Watches] |[Warnings] |[Special Weather Statements] |[Storm Damage Reports][5-Day Rainfall Total][Earthquake Info][Hurricane][All Lightning]
[AHPS-US] |[NW] |[NE] |[C] |[WC] |[S] |[SW]

Today's Forecast Map


Reg. NEXRAD Animation


National Fire Danger: Day 1 & 2 Map

Current NWS Watch/Warnings

SPC Convective Day 1 Outlook


Day 2 Outlook

(Click images to enlarge|Page will refresh every 5 minutes)
UK Ag. Weather Center Desktop Severe Weather Service[HERE]
Harrison County, KY Hazardous Weather Outlook Webcast
(9 AM to 9 PM Mon-Fri)
[Fast]
[Dial-up]


UKAWC 1st Detectors/1st Responders Precision Weather Forecast For HARRISON County, Kentucky
(based on the NWS County Digital Forecast)

ISSUED AT 02:00 UTC ON THURSDAY MAR 23 2017
DAY WED THURSDAY
EDT 3HR 11P MIDN 1A 2A 3A 4A 5A 6A 7A 8A 9A 10A 11A NOON 1P 2P 3P 4P 5P 6P 7P
MAX/MIN -- -- -- -- -- -- -- -- -- 27° -- -- -- -- -- -- -- -- -- -- 59°
TEMP 31° 31° 29° 29° 29° 27° 27° 27° 27° 27° 31° 36° 40° 45° 49° 54° 56° 58° 59° 58° 56°
SKY COVER 6% 7% 9% 11% 13% 15% 17% 18% 20% 22% 28% 30% 32% 35% 39% 41% 48% 62% 69% 72% 79%
Clouds
DEW PT 18° 18° 18° 18° 16° 16° 16° 16° 14° 14° 16° 18° 20° 22° 25° 27° 29° 32° 34° 36° 36°
RH 58% 61% 62% 63% 60% 62% 62% 62% 60% 59% 53% 47% 42% 38% 37% 36% 35% 37% 38% 42% 49%
POP 12HR -- -- -- -- -- -- -- -- -- 0% -- -- -- -- -- -- -- -- -- -- --
RAIN/SNOW (liq.equ) -- -- -- 0.00in -- -- -- -- -- 0.00in -- -- -- -- -- 0.00in -- -- -- -- --
SNOWFALL -- -- -- 0in -- -- -- -- -- 0in -- -- -- -- -- 0in -- -- -- -- --
WIND SPEED(MPH) 7 6 6 6 7 7 7 6 6 6 7 7 7 7 7 7 7 7 7 7 7
WIND Gust(MPH) 14 14 14 14 15 15 15 15 15 15 7 8 8 8 8 8 7 7 7 7 7
WIND DIR NE NE NE E E E E E E E E E E E SE SE SE S S S SE
DEW -- -- -- -- -- -- -- -- -- -- -- -- -- -- -- -- -- -- -- -- --
HeatIndex 25 25 23 23 22 20 19 20 20 20 25 30 35 45 49 54 56 58 59 58 56
Rain Showers -- -- -- -- -- -- -- -- -- -- -- -- -- -- -- -- -- -- -- -- --
Thunder Storm -- -- -- -- -- -- -- -- -- -- -- -- -- -- -- -- -- -- -- -- --
WIND CHILL 25° 25° 23° 23° 22° 20° 20° 21° 21° 21° 25° 30° 35° 41° -- -- -- -- -- -- --
SPRAY COND
DRY COND
LIVESTOCK COLDSTRESS



DAY FRIDAY SATURDAY SUNDAY MONDAY TUESDAY WEDNESDAY
EDT 6HR 8P 9P 10P 11P MIDN 1A 2A 3A 4A 5A 6A 7A 8A 9A 10A 11A 2P 5P 8P 11P 2A 5A 8A 11A 2P 5P 8P 2A 8A 2P 8P 2A 8A 2P 8P 2A 8A 2P 8P 2A 8A 2P 8P
MAX/MIN -- -- -- -- -- -- -- -- -- -- -- -- 45° -- -- -- -- 68° -- -- -- -- 54° -- -- 72° -- -- 54° 67° -- -- 50° 72° -- -- 52° 65° -- -- 45° 63° --
TEMP 52° 50° 49° 49° 49° 47° 47° 47° 45° 45° 45° 45° 47° 49° 52° 54° 63° 68° 63° 58° 56° 54° 54° 63° 70° 72° 63° 56° 54° 67° 63° 54° 52° 72° 67° 56° 54° 65° 61° 50° 47° 61° 58°
SKY COVER 84% 83% 80% 78% 77% 75% 73% 72% 70% 69% 68% 67% 66% 65% 64% 64% 69% 69% 66% 53% 71% 66% 80% 87% 85% 88% 91% 93% 90% 74% 68% 51% 52% 64% 70% 84% 88% 77% 62% 64% 70% 52% 49%
Clouds
DEW PT 36° 38° 38° 38° 40° 40° 40° 40° 40° 38° 38° 38° 40° 40° 41° 43° 49° 52° 50° 50° 49° 49° 49° 52° 54° 54° 54° 54° 52° 54° 52° 52° 49° 52° 52° 50° 52° 56° 50° 45° 43° 45° 45°
RH 54% 60% 63% 65% 71% 76% 79% 76% 79% 76% 76% 76% 76% 73% 68% 66% 60% 54% 62% 74% 79% 80% 80% 67% 55% 52% 72% 89% 92% 65% 67% 89% 89% 51% 59% 83% 93% 72% 67% 82% 89% 55% 59%
POP 12HR 10% -- -- -- -- -- -- -- -- -- -- -- 12% -- -- -- -- -- 7% -- -- -- 5% -- -- -- 49% -- 90% -- 66% -- 26% -- 19% -- 70% -- 54% -- 27% -- 28%
RAIN/SNOW (liq.equ) 0.00in -- -- -- -- -- 0.00in -- -- -- -- -- 0.00in -- -- -- 0.00in -- 0.00in -- 0.00in -- 0.00in -- 0.00in -- 0.05in -- -- -- -- -- -- -- -- -- -- -- -- -- -- -- --
SNOWFALL 0in -- -- -- -- -- 0in -- -- -- -- -- 0in -- -- -- 0in -- 0in -- 0in -- 0in -- 0in -- 0in -- -- -- -- -- -- -- -- -- -- -- -- -- -- -- --
WIND SPEED(MPH) 6 7 7 7 7 8 8 8 8 8 8 9 9 9 10 10 10 9 7 7 7 7 7 10 10 9 7 7 8 9 7 5 5 7 5 6 5 8 6 7 6 7 6
WIND DIR SE SE S S S S S S S S S S S S SW SW SW SW S S S S S S S S S S S SW SW SW SW SW S S SW W W N N NW NW
HeatIndex 52 50 49 49 49 47 47 47 45 45 45 45 47 49 52 54 63 68 63 58 56 54 54 63 70 72 63 56 54 67 63 54 52 72 67 56 54 65 61 50 47 61 58
Rain Showers -- -- -- -- -- -- -- -- -- -- -- -- -- -- -- -- -- -- -- -- -- -- -- -- Chance Chance Definite Definite Likely Likely Chance -- -- Slight Chance Chance Likely Chance Chance Slight Chance Chance Chance Slight Chance Slight Chance
Thunder Storm -- -- -- -- -- -- -- -- -- -- -- -- -- -- -- -- -- -- -- -- -- -- -- -- Chance Chance Chance Chance Slight Chance Slight Chance -- -- -- Slight Chance Chance Slight Chance -- -- -- -- -- -- --
WIND CHILL -- -- -- -- -- -- -- -- 41° 41° 41° 40° -- -- -- -- -- -- -- -- -- -- -- -- -- -- -- -- -- -- -- -- -- -- -- -- -- -- -- -- -- -- --
SPRAY COND
DRY COND
LIVESTOCK COLDSTRESS

Click on individual weather variable above in left-hand column (ie., TEMP, RH, QPF 12HR) to view state forecast maps






NWS 48 Hr. Forecast Maps,

Regional Hourly Observations For HARRISON County, Kentucky
Issued at 1000 PM EDT WED MAR 22 2017
NORTHEAST KENTUCKY
  
CITY           SKY/WX    TMP DP  RH WIND       PRES   REMARKS
LEXINGTON      CLEAR     34  19  54 NE8       30.42S WCI  27          
COVINGTON      PTCLDY    36  20  52 NE13      30.46R WCI  27          
FRANKFORT      CLEAR     38  19  46 NE7       30.43R WCI  33          


Current NOWCAST not available:
Nowcasts are not issued routinely during fair weather. Only when
precipitation or other significant weather is occuring in this county will these
forecasts be issued. Currently, there is no short term forecast in effect.


Fire Weather Forecast For HARRISON County, KY
Provided by the National Weather Service:

Issued at: Wed Mar 22 22:05:01 EDT 2017


                      Tonight      Thu          Thu Night    Fri          

CLOUD COVER           PCldy        PCldy        MCldy        PCldy        
PRECIP TYPE           NONE         NONE         NONE         NONE         
CHANCE PRECIP (%)     0            0            0            0            
TEMP (24H TREND)      28 (-2)      62 (+15)     46           69           
RH % (24H TREND)      65 (-2)      35 (+10)     76           50           
20FTWND-VAL/AM(MPH)                E  6                      S  8 G17     
20FTWND-RDG/PM(MPH)   NE  6        S  6         S  5         SW  9 G18    
PRECIP AMOUNT         0.00         0.00         0.00         0.00         
MIXING HGT(FT-AGL/MSL)             4708                      3612         
TRANSPORT WND (MPH)                S 16                      SW 23        
VENT RATE (KT-FT)                  68016                     75637        
DISPERSION                         Good                      Good         
DSI                   STBL         SLGT UNSTBL  STBL         SLGT UNSTBL  
LAL                   1            1            1            1            
HAINES INDEX          4            3            2            2            
ADI EARLY             8 POOR       32 FAIR      9 POOR       25 FAIR      
ADI LATE              5 VERY POOR  54 GEN GOOD  16 GEN POOR  63 GOOD      
MAX LVORI EARLY       2            3            3            3            
MAX LVORI LATE        3            1            3            1            

REMARKS...ADI IS ATMOSPHERIC DISPERSION INDEX BY LAVDAS.        
LVORI IS LOW VISIBILITY OCCURRENCE RISK INDEX.

.SATURDAY...Mostly cloudy with a 50 percent chance of showers and
thunderstorms. Lows in the mid 50s. Highs in the mid 70s. South
winds around 5 mph. 
.SUNDAY...Rain showers and chance of thunderstorms. Lows in the
mid 50s. Highs in the upper 60s. Southwest winds 5 to 10 mph. 
.MONDAY...Mostly cloudy. Lows in the lower 50s. Highs in the mid
70s. Southwest winds 5 to 10 mph. 
.TUESDAY...Rain showers likely and chance of thunderstorms. Lows
in the mid 50s. Highs in the mid 60s. Southwest winds 5 to
10 mph. 
.WEDNESDAY...Mostly cloudy. A 50 percent chance of rain showers.
Lows in the upper 40s. Highs in the mid 60s. Northwest winds
around 5 mph. 

SPC's Fire Weather Web Tool (Excellent!), SPC's Fire Weather Outlooks, NWS Fire Weather WEB, Fire Danger Class Map,
Keetch-Byram Drought Index, ROMAN Web, Haines Index ,
WFAS's 10-hr Dead Fuel Moist., WFAS's 100-hr Dead Fuel Moist., Probablity of Ignition, Visual blackness Map, Palmer Drought Index, HPC's Rainfall Forecast Maps


Hazardous Weather Outlook For HARRISON County, Kentucky
343 PM EDT Wed Mar 22 2017

   FREEZE WARNING IN EFFECT FROM 1 AM TO 10 AM EDT THURSDAY  

This hazardous weather outlook is for portions of south central
Indiana and Central Kentucky.

 DAY ONE  Tonight.

Temperatures will drop into the 28-32 degree range late tonight through
Thursday mid morning, therefore a Freeze Warning is in effect. 

 DAYS TWO THROUGH SEVEN  Thursday through Tuesday.

A series of systems will bring scattered thunderstorms to the region
this weekend and into early next week. 

 SPOTTER INFORMATION STATEMENT  

Spotter activation is not anticipated. 

Latest HARRISON County, Kentucky Watches, Warnings and Advisories.
Additional Drought Info.: UKAWC Drought Page, Kentucky Drought Watch


7-Day Forecast For HARRISON County, KY


FREEZE WARNING IN EFFECT FROM 1 AM TO 10 AM EDT THURSDAY

OVERNIGHT
Mostly clear. Lows in the upper 20s. Northeast winds 5 to 10 mph.

THURSDAY
Partly cloudy. Highs in the upper 50s. Southeast winds 5 to 10 mph.

THURSDAY NIGHT
Mostly cloudy. Lows in the mid 40s. South winds 5 to 10 mph.

FRIDAY
Partly cloudy. Highs in the upper 60s. Southwest winds 10 to 15 mph.

FRIDAY NIGHT
Partly cloudy. Lows in the mid 50s. South winds 5 to 10 mph.

SATURDAY
Mostly cloudy with a 50 percent chance of showers and thunderstorms. Highs in the lower 70s.

SATURDAY NIGHT
Showers and chance of thunderstorms. Lows in the mid 50s. Chance of precipitation 90 percent.

SUNDAY
Showers likely and slight chance of thunderstorms. Highs in the upper 60s. Chance of precipitation 70 percent.

SUNDAY NIGHT
Partly cloudy with a 30 percent chance of showers. Lows in the lower 50s.

MONDAY
Partly cloudy with a 20 percent chance of showers and thunderstorms. Highs in the lower 70s.

MONDAY NIGHT
Showers likely and chance of thunderstorms. Lows in the mid 50s. Chance of precipitation 70 percent.

TUESDAY
Mostly cloudy with a 50 percent chance of showers. Highs in the mid 60s.

TUESDAY NIGHT
Partly cloudy with a 50 percent chance of showers. Lows in the mid 40s.

WEDNESDAY
Partly cloudy with a 30 percent chance of showers. Highs in the lower 60s.

Ag Weather Center, Department of Biosystems & Agricultural Engineering, University of Kentucky